Theta_e
304 303 304 300 297 297 299 299 297 297 297 298 298 297 297 297 298 299 301 302 306 302 303 303 302 305 312 315 316 319 329 331 328 325 324 307 311 303 301 304 302 303 304 303 302
298 298 298 299 297 298 297 298 297 297 296 297 298 298 298 297 297 298 297 299 300 301 302 307 311 311 315 314 314 325 329 329 321 320 317 309 309 306 304 304 304 302 300 300 301
296 296 296 296 296 297 297 297 297 297 297 297 298 298 298 299 298 297 297 299 300 301 302 304 306 310 315 312 309 315 327 315 308 305 306 307 304 302 304 307 307 304 303 301 301
295 295 296 296 296 296 296 297 297 297 297 297 298 299 299 297 303 297 298 299 301 302 302 304 308 314 317 317 305 316 304 305 302 301 302 304 301 303 303 309 301 303 303 302 302
295 295 296 296 296 296 296 296 297 297 297 297 298 298 297 299 298 298 299 300 301 301 301 305 311 312 316 308 306 311 303 300 299 299 299 299 301 302 301 303 301 300 299 302 302
296 296 296 296 296 296 296 297 297 297 297 297 298 298 297 301 297 298 299 300 300 300 300 302 306 305 305 302 309 302 301 300 299 300 299 300 301 299 302 301 301 299 300 301 302
298 296 296 296 297 297 297 297 298 298 297 297 299 297 299 298 297 298 300 299 299 299 300 298 299 304 301 302 298 300 303 300 300 300 301 298 303 301 303 299 301 301 301 301 301
300 298 296 297 297 297 297 297 297 297 297 298 298 297 299 296 297 298 299 299 300 299 298 297 298 298 300 298 300 301 302 306 300 300 299 300 308 304 301 301 301 301 301 301 301
301 299 297 297 298 298 297 297 297 297 298 298 298 297 299 296 297 297 298 299 299 299 298 298 298 300 299 302 303 302 306 303 302 298 300 301 308 305 299 300 302 302 302 301 301
302 300 298 297 298 297 297 298 299 297 297 298 297 300 297 297 296 296 298 298 299 299 301 301 301 303 301 303 307 305 303 302 304 300 299 302 303 305 303 300 302 303 302 302 301
302 301 299 297 298 297 297 298 301 302 297 297 296 296 296 296 296 296 297 298 299 301 303 299 304 304 302 299 299 301 302 303 301 298 301 303 303 304 305 302 303 303 303 303 302
303 302 300 298 297 297 297 299 298 298 300 294 295 295 294 294 297 297 297 300 301 302 299 302 303 299 299 299 300 301 302 303 301 298 299 303 303 305 306 305 304 305 305 303 303
304 303 301 298 297 296 296 296 297 297 299 297 296 295 295 295 296 298 298 297 300 301 300 303 300 297 298 300 301 301 303 302 302 300 298 299 307 307 303 300 300 301 301 302 302
307 306 305 300 297 295 296 295 296 296 315 304 297 296 296 297 298 295 295 298 298 300 299 299 296 298 299 299 299 302 298 299 300 304 308 300 311 310 309 306 304 304 303 302 300
312 309 306 303 296 296 295 295 298 298 325 299 297 295 296 298 296 298 295 297 300 298 299 302 298 298 300 299 297 301 297 299 299 302 303 303 307 310 305 310 307 304 304 302 300
313 312 310 305 299 296 296 298 298 320 320 303 296 297 298 297 297 297 298 297 296 299 298 296 295 297 298 296 296 297 299 300 301 303 313 303 304 312 312 308 305 304 302 301 300
314 313 312 309 304 299 297 299 317 322 303 308 301 297 298 298 298 297 299 301 303 311 310 297 297 295 295 298 297 298 303 318 321 318 320 298 302 310 308 306 304 304 303 302 301
314 312 312 310 309 302 296 311 314 311 307 295 296 296 300 298 298 297 298 301 298 301 303 308 309 296 294 297 301 300 303 315 319 314 309 299 307 312 306 302 301 300 302 300 300
312 310 308 311 310 300 306 316 319 310 302 298 296 299 304 296 297 298 299 302 302 302 314 307 303 294 294 294 296 300 304 300 306 298 306 307 306 307 305 304 304 303 302 303 302
308 306 304 309 304 296 305 317 311 301 297 296 306 302 309 301 300 300 302 302 300 298 297 304 309 295 294 294 295 297 297 305 304 313 313 306 305 310 309 307 304 304 304 304 303
305 305 302 300 295 299 312 312 308 299 298 299 302 301 303 302 302 304 309 303 298 296 295 302 308 298 296 297 299 297 301 299 303 305 312 309 309 309 309 307 307 305 304 303 302
303 304 298 295 300 300 308 309 302 299 295 297 297 300 301 301 303 300 307 303 297 297 300 300 311 303 302 293 293 295 299 302 311 310 302 303 308 304 304 304 303 304 303 303 301
304 302 295 295 309 306 300 298 297 297 299 299 300 298 298 300 303 299 298 295 296 297 302 299 307 308 304 298 294 297 297 298 298 300 306 312 311 300 299 300 302 302 303 303 302
301 304 297 295 297 308 309 306 308 296 300 297 299 296 296 297 297 304 297 296 294 296 296 296 303 311 315 320 303 298 297 297 303 307 306 305 307 307 306 304 303 302 302 302 302
299 302 300 301 299 302 308 310 310 310 296 296 297 299 300 301 299 297 297 295 294 295 298 299 302 297 299 298 297 301 298 297 299 302 305 308 305 304 305 306 306 305 302 300 299
297 300 298 303 301 301 304 308 310 310 305 303 301 306 299 305 305 307 299 297 301 295 297 294 303 292 296 294 296 298 299 297 298 300 301 301 301 303 304 303 302 303 303 302 301
294 295 297 299 302 303 304 305 307 308 308 308 303 305 299 301 304 303 300 299 300 299 297 295 297 298 305 294 295 300 298 298 299 298 300 302 303 304 304 304 303 303 302 300 300
Wind_Speed
13 12 12 11 11 11 10 9 7 7 7 6 6 6 1 2 6 4 6 7 8 11 8 2 1 4 2 4 2 1 5 6 6 8 5 8 8 3 1 3 4 5 3 4 13
12 12 12 12 10 11 11 11 10 7 7 7 6 5 5 2 2 8 9 11 8 5 2 3 7 4 4 3 2 4 5 5 1 2 4 9 6 7 4 6 7 6 6 8 10
13 12 12 13 13 12 11 12 10 10 9 7 8 6 3 2 3 1 14 10 3 1 4 4 3 1 4 1 3 1 2 3 3 3 2 7 4 3 5 9 11 11 14 14 13
14 14 14 14 15 14 13 13 11 9 8 6 9 5 2 4 2 4 14 8 1 6 4 3 1 2 3 4 2 4 3 2 3 2 3 4 1 4 11 3 1 7 11 16 13
15 15 15 16 15 16 15 14 13 9 6 6 5 6 1 1 2 10 10 6 3 3 2 2 1 3 5 5 3 3 5 3 2 2 1 1 6 6 13 14 4 6 9 14 14
16 16 16 17 17 17 14 16 13 8 6 5 6 7 2 1 2 11 7 7 4 2 3 3 2 3 7 3 1 4 5 5 1 1 1 3 4 2 4 7 13 11 13 14 15
18 17 17 18 18 18 15 16 11 7 6 5 5 3 3 2 3 9 7 10 10 3 4 3 4 2 4 5 4 7 3 2 3 0 1 2 8 14 8 2 14 16 14 15 16
18 17 16 17 18 18 16 14 7 5 4 3 3 2 3 0 2 7 4 5 8 10 12 10 10 8 3 6 4 3 2 4 3 1 2 3 6 3 4 11 13 17 16 15 18
20 19 18 18 18 16 16 8 5 2 3 1 2 1 1 0 2 7 5 2 4 6 7 6 5 4 2 6 4 3 3 5 2 1 2 7 7 2 3 8 13 15 18 17 17
20 20 20 19 18 15 13 3 1 2 3 2 3 1 2 0 3 6 4 2 1 2 2 3 3 3 2 4 3 5 4 4 5 3 3 7 20 16 9 9 13 14 16 18 18
21 22 21 20 15 16 6 2 1 1 9 2 1 2 3 7 2 3 4 0 1 3 4 2 4 6 4 1 2 1 1 4 1 2 4 8 18 22 15 14 19 20 19 18 19
21 22 23 22 9 15 6 6 3 0 2 0 1 2 1 3 2 3 7 2 2 3 1 2 5 4 5 3 2 2 2 4 1 1 3 6 19 23 20 17 19 18 18 18 17
21 22 23 18 6 8 16 6 2 1 2 0 0 0 1 2 0 2 5 1 1 4 3 3 3 5 3 4 5 2 3 2 3 4 2 9 9 7 2 4 10 13 13 11 13
21 22 22 15 3 8 4 5 3 0 2 2 1 1 1 1 1 2 3 1 2 4 3 3 3 4 4 3 2 3 3 3 1 3 4 4 6 7 4 9 9 9 8 8 9
19 20 20 14 5 3 4 4 2 1 3 2 2 1 1 1 1 2 3 1 3 4 3 3 6 4 3 1 2 2 3 2 1 0 3 2 5 6 2 2 2 3 5 4 5
18 19 18 11 6 4 5 2 1 4 6 1 1 2 3 1 1 2 1 5 2 3 5 3 2 2 2 3 2 9 3 2 2 1 3 2 3 5 3 1 1 2 3 3 5
19 19 16 13 6 7 5 1 4 3 1 3 2 1 2 3 3 1 2 4 4 3 4 1 2 1 1 3 2 2 2 1 2 2 3 2 3 11 5 5 4 1 1 3 5
21 18 16 15 14 8 2 4 4 1 6 1 3 3 4 4 3 4 3 4 6 2 3 6 4 6 2 2 2 6 2 3 5 3 1 2 6 4 4 3 4 5 5 3 4
16 16 10 14 11 7 1 3 6 6 3 6 1 2 2 2 2 4 7 7 7 11 7 5 2 1 2 2 2 5 5 3 5 2 2 3 6 14 7 8 11 10 7 8 5
5 4 7 11 15 8 2 9 6 4 5 3 6 5 5 4 5 5 5 4 4 4 1 6 2 1 2 1 2 2 2 3 2 5 5 3 5 9 2 3 2 2 8 8 6
6 0 1 14 12 2 8 8 7 7 7 8 6 4 5 5 4 5 4 2 5 5 2 2 1 3 1 9 9 4 4 2 3 3 3 2 5 6 9 7 4 3 3 3 4
6 2 9 17 3 2 6 5 8 5 2 4 3 7 8 7 6 5 7 5 8 11 9 7 3 4 3 1 2 2 5 8 4 5 2 2 7 3 5 4 4 7 7 6 6
3 3 10 4 7 6 3 4 3 5 9 9 10 9 6 10 3 8 6 1 9 8 7 8 4 2 2 2 1 6 7 6 3 1 8 4 5 2 3 7 7 9 7 7 7
4 3 2 3 2 10 8 7 8 5 5 5 5 4 4 6 8 5 8 4 8 6 3 6 4 6 11 3 6 6 8 12 6 5 6 15 18 8 10 11 10 11 12 12 11
3 5 5 5 7 10 11 9 20 12 4 4 6 14 9 8 8 9 5 4 4 7 5 5 7 5 4 1 3 4 5 16 17 22 12 13 20 18 20 22 16 14 11 12 14
4 4 2 6 2 14 15 21 24 20 13 10 16 16 15 20 19 14 11 7 8 8 9 4 4 4 4 5 6 6 13 13 22 15 23 21 30 13 19 18 20 22 16 16 17
10 16 6 6 8 10 15 18 23 19 18 22 20 18 16 28 16 7 2 4 3 10 14 9 7 6 14 4 4 9 23 20 12 15 17 17 31 11 20 20 18 18 13 16 16
Wind_Direction
32 28 22 19 15 8 5 354 347 345 349 357 18 39 137 38 62 58 42 331 310 322 328 338 110 155 141 101 52 225 216 222 195 175 163 158 186 161 7 197 204 203 251 103 146
21 19 16 11 11 1 360 354 349 344 346 352 327 341 347 197 150 62 0 331 313 329 254 144 126 136 94 93 62 225 229 208 83 133 158 163 199 172 216 206 226 215 197 163 166
9 8 11 1 359 358 351 351 347 342 340 343 343 326 341 159 198 27 344 338 309 323 150 113 113 113 91 73 29 64 253 119 106 84 123 160 201 189 221 230 230 217 193 185 188
7 1 1 0 354 349 344 347 342 336 332 337 350 347 293 174 236 343 344 350 30 135 144 132 148 112 108 139 46 143 82 6 126 125 159 176 159 233 223 235 36 220 188 181 195
6 3 359 354 353 348 343 341 335 325 339 336 350 9 187 112 25 344 357 21 81 144 90 130 133 130 127 117 133 106 141 89 79 95 105 254 236 258 251 242 225 187 181 193 202
4 1 358 354 351 345 341 337 331 314 327 332 340 339 326 220 27 356 26 49 65 119 81 45 132 113 101 82 313 114 133 130 140 46 52 273 238 263 241 241 211 199 204 207 209
2 360 356 353 349 345 340 337 331 312 304 328 349 21 58 98 17 18 52 53 48 100 95 56 105 46 133 122 131 123 110 180 197 239 209 302 246 230 218 143 205 211 215 215 217
355 356 355 351 346 343 337 335 337 326 323 329 354 21 99 21 1 21 83 66 70 83 91 85 94 93 46 123 85 144 221 210 130 279 167 248 259 191 211 210 216 217 219 221 223
353 354 351 349 347 343 337 334 340 9 5 35 24 344 126 52 33 357 26 63 76 80 73 91 69 77 160 162 149 190 223 223 200 145 276 226 273 217 179 211 231 223 221 222 226
352 356 353 346 345 345 340 327 337 323 343 344 33 329 75 24 324 342 342 47 83 122 121 56 85 134 153 207 218 178 217 218 238 137 223 231 260 261 232 231 237 235 228 226 226
351 354 355 349 346 350 359 106 346 198 44 50 23 332 342 328 313 7 353 131 155 84 191 25 196 205 163 99 48 58 229 250 162 87 306 257 273 274 264 246 249 244 240 235 231
348 354 356 349 3 10 26 68 81 83 294 99 289 284 288 356 311 15 1 208 193 186 173 161 228 121 111 118 129 154 233 248 219 162 290 288 280 276 265 246 247 252 242 237 236
345 352 359 356 23 21 61 68 50 41 251 121 117 293 350 4 14 309 355 82 99 155 206 218 105 139 158 155 164 169 228 229 298 305 245 299 265 260 182 241 245 250 248 246 239
339 348 358 359 35 10 50 13 2 46 58 209 193 110 163 70 253 327 13 53 71 175 128 99 138 172 164 177 201 221 135 116 346 308 278 338 293 306 264 287 245 244 224 230 221
330 338 349 12 346 42 330 340 327 285 321 104 147 139 80 183 8 92 28 240 161 134 205 144 164 169 187 116 175 108 151 128 139 151 318 180 251 267 351 256 14 26 193 214 219
314 322 335 343 356 355 343 346 46 41 248 261 268 164 160 102 124 309 88 64 85 103 52 78 20 356 52 75 48 135 130 109 114 187 242 101 263 270 232 116 94 78 115 165 173
297 299 307 316 309 327 345 260 17 184 37 214 194 204 170 156 158 173 179 175 192 145 191 136 157 94 226 126 99 208 194 263 240 189 256 134 228 259 280 249 237 59 105 162 170
294 281 283 284 286 292 344 48 208 259 233 49 149 141 220 172 198 162 156 237 219 164 140 187 235 179 151 267 239 188 260 228 242 220 77 133 232 246 193 241 267 279 234 258 210
290 259 254 266 249 213 120 184 217 210 145 164 109 200 243 217 215 202 215 203 194 180 189 157 192 61 22 341 313 154 217 11 101 71 259 233 264 279 238 256 242 232 227 238 239
263 245 241 231 197 162 126 222 220 199 150 160 220 191 217 195 187 200 181 178 189 198 255 182 152 105 73 297 95 257 115 152 239 208 232 225 274 250 173 156 113 166 207 227 244
237 128 249 180 164 87 222 214 212 212 162 187 212 186 216 211 218 210 207 249 170 139 63 123 224 114 181 199 183 166 208 229 294 256 246 232 234 229 207 208 198 171 165 233 241
165 245 171 158 135 253 235 192 174 187 183 234 256 222 196 173 204 241 229 245 169 158 171 183 127 181 196 54 316 273 220 195 223 204 243 336 258 209 225 233 222 243 256 246 242
244 192 176 204 218 223 224 266 227 156 190 186 216 213 188 190 218 197 205 65 168 183 160 180 202 165 190 180 177 229 205 215 117 100 195 206 242 94 224 258 250 245 242 243 245
289 245 162 210 275 226 215 221 224 210 241 182 182 123 158 207 232 211 212 187 189 199 160 147 196 205 231 178 122 194 197 201 205 209 205 226 249 244 258 238 239 247 258 262 261
227 242 188 218 234 227 221 228 236 221 203 233 216 221 169 214 217 217 212 165 185 209 182 179 221 188 265 234 202 217 183 191 205 223 222 255 239 235 248 262 277 279 275 274 268
272 245 307 258 178 202 221 235 237 230 196 220 230 222 208 228 220 222 197 194 200 168 181 191 221 157 248 202 227 262 233 205 217 231 247 262 270 243 263 280 272 269 271 266 266
243 253 281 264 250 238 231 244 247 235 231 220 213 233 223 234 247 268 130 109 231 183 185 172 168 166 252 137 159 267 231 210 210 214 219 231 248 252 262 255 259 271 260 250 249